• In Hungary
  • List of Countries
  • For 7 days
  • Water Temperature
  • Satellite Maps
  • Weather Map
  • News
  • Weather Widgets
  • user-avatar
    Login

    Hourly Weather Newport

    Today, 15 December, Friday

    Time Temperature Precipitation Wind Pressure Humidity
    00:00 -1°C° 0 mm 8 mps 740 mmHg 89%
    01:00 0°C° 0 mm 8 mps 740 mmHg 89%
    02:00 0°C° 0 mm 9 mps 740 mmHg 88%
    03:00 0°C° 0 mm 9 mps 741 mmHg 88%
    04:00 +1°C° 0.3 mm 9 mps 741 mmHg 87%
    05:00 +1°C° 0.3 mm 10 mps 741 mmHg 86%
    06:00 +1°C° 0 mm 10 mps 741 mmHg 87%
    07:00 +1°C° 0.1 mm 10 mps 742 mmHg 86%
    08:00 -1°C° 0.1 mm 11 mps 742 mmHg 85%
    09:00 -1°C° 0.1 mm 11 mps 743 mmHg 84%
    10:00 +1°C° 0 mm 11 mps 744 mmHg 81%
    11:00 +1°C° 0 mm 10 mps 745 mmHg 78%
    12:00 +2°C° 0 mm 10 mps 746 mmHg 75%
    13:00 +2°C° 0 mm 10 mps 747 mmHg 76%
    14:00 +2°C° 0 mm 9 mps 748 mmHg 77%
    15:00 +2°C° 0 mm 9 mps 748 mmHg 78%
    16:00 +1°C° 0 mm 9 mps 749 mmHg 81%
    17:00 +1°C° 0 mm 9 mps 750 mmHg 83%
    18:00 0°C° 0 mm 9 mps 751 mmHg 86%
    19:00 0°C° 0 mm 9 mps 752 mmHg 86%
    20:00 0°C° 0 mm 9 mps 753 mmHg 86%
    21:00 0°C° 0 mm 9 mps 753 mmHg 86%
    22:00 0°C° 0 mm 8 mps 754 mmHg 86%
    23:00 -1°C° 0 mm 8 mps 755 mmHg 87%

    Tomorrow, 16 December, Saturday

    Time Temperature Precipitation Wind Pressure Humidity
    00:00 -1°C° 0 mm 8 mps 755 mmHg 88%
    01:00 -1°C° 0 mm 7 mps 756 mmHg 88%
    02:00 -2°C° 0 mm 7 mps 756 mmHg 89%
    03:00 -2°C° 0 mm 6 mps 757 mmHg 89%
    04:00 -2°C° 0 mm 6 mps 757 mmHg 89%
    05:00 -2°C° 0 mm 6 mps 758 mmHg 90%
    06:00 -3°C° 0 mm 6 mps 758 mmHg 90%
    07:00 -2°C° 0 mm 6 mps 759 mmHg 89%
    08:00 -2°C° 0 mm 6 mps 760 mmHg 88%
    09:00 -2°C° 0 mm 6 mps 761 mmHg 88%
    10:00 -1°C° 0 mm 6 mps 761 mmHg 83%
    11:00 +2°C° 0 mm 6 mps 761 mmHg 78%
    12:00 +3°C° 0 mm 7 mps 761 mmHg 73%
    13:00 +3°C° 0 mm 6 mps 762 mmHg 77%
    14:00 +3°C° 0 mm 6 mps 762 mmHg 81%
    15:00 +3°C° 0 mm 5 mps 762 mmHg 84%
    16:00 +2°C° 0 mm 5 mps 762 mmHg 87%
    17:00 +1°C° 0 mm 5 mps 763 mmHg 90%
    18:00 +1°C° 0 mm 5 mps 763 mmHg 93%
    19:00 0°C° 0 mm 4 mps 763 mmHg 93%
    20:00 0°C° 0 mm 4 mps 764 mmHg 93%
    21:00 0°C° 0 mm 4 mps 764 mmHg 92%
    22:00 -1°C° 0 mm 4 mps 765 mmHg 92%
    23:00 0°C° 0 mm 3 mps 765 mmHg 92%

    Day after tomorrow, 17 December, Sunday

    Time Temperature Precipitation Wind Pressure Humidity
    00:00 0°C° 0 mm 3 mps 765 mmHg 92%
    01:00 0°C° 0 mm 3 mps 765 mmHg 92%
    02:00 0°C° 0 mm 3 mps 766 mmHg 92%
    03:00 0°C° 0 mm 3 mps 766 mmHg 92%
    04:00 0°C° 0 mm 3 mps 766 mmHg 92%
    05:00 0°C° 0 mm 3 mps 766 mmHg 92%
    06:00 +1°C° 0 mm 3 mps 766 mmHg 93%
    07:00 +1°C° 0 mm 3 mps 766 mmHg 93%
    08:00 +1°C° 0 mm 3 mps 766 mmHg 94%
    09:00 +2°C° 0 mm 3 mps 767 mmHg 94%
    10:00 +3°C° 0 mm 4 mps 767 mmHg 91%
    11:00 +5°C° 0 mm 5 mps 767 mmHg 87%
    12:00 +7°C° 0 mm 5 mps 767 mmHg 84%
    13:00 +7°C° 0 mm 6 mps 766 mmHg 84%
    14:00 +6°C° 0 mm 7 mps 766 mmHg 85%
    15:00 +6°C° 0 mm 7 mps 766 mmHg 86%
    16:00 +6°C° 0.1 mm 8 mps 766 mmHg 87%
    17:00 +6°C° 0.1 mm 8 mps 765 mmHg 88%
    18:00 +6°C° 0.1 mm 9 mps 765 mmHg 89%
    19:00 +6°C° 0 mm 9 mps 765 mmHg 90%
    20:00 +7°C° 0 mm 9 mps 765 mmHg 91%
    21:00 +7°C° 0 mm 10 mps 765 mmHg 92%
    22:00 +7°C° 0.1 mm 9 mps 766 mmHg 93%
    23:00 +8°C° 0.1 mm 9 mps 766 mmHg 94%

    18 December, Monday

    Time Temperature Precipitation Wind Pressure Humidity
    00:00 +9°C° 0.1 mm 8 mps 766 mmHg 95%
    01:00 +9°C° 0 mm 8 mps 766 mmHg 95%
    02:00 +9°C° 0 mm 7 mps 766 mmHg 95%
    03:00 +9°C° 0 mm 6 mps 766 mmHg 96%
    04:00 +9°C° 0 mm 6 mps 766 mmHg 96%
    05:00 +8°C° 0 mm 5 mps 767 mmHg 96%
    06:00 +8°C° 0 mm 5 mps 767 mmHg 97%
    07:00 +8°C° 0.1 mm 4 mps 768 mmHg 96%
    08:00 +7°C° 0.1 mm 4 mps 768 mmHg 95%
    09:00 +8°C° 0.1 mm 3 mps 769 mmHg 95%
    10:00 +9°C° 0 mm 3 mps 769 mmHg 91%
    11:00 +9°C° 0 mm 2 mps 769 mmHg 88%
    12:00 +10°C° 0 mm 2 mps 769 mmHg 85%
    13:00 +11°C° 0 mm 1 mps 769 mmHg 87%
    14:00 +11°C° 0 mm 1 mps 769 mmHg 88%
    15:00 +11°C° 0 mm 1 mps 769 mmHg 90%
    16:00 +11°C° 0 mm 1 mps 769 mmHg 92%
    17:00 +9°C° 0 mm 2 mps 769 mmHg 93%
    18:00 +9°C° 0 mm 2 mps 770 mmHg 95%
    19:00 +10°C° 0.1 mm 2 mps 770 mmHg 95%
    20:00 +10°C° 0.1 mm 2 mps 770 mmHg 96%
    21:00 +10°C° 0.1 mm 2 mps 771 mmHg 96%
    22:00 +10°C° 0.1 mm 2 mps 770 mmHg 97%
    23:00 +10°C° 0.1 mm 3 mps 770 mmHg 97%

    19 December, Tuesday

    Time Temperature Precipitation Wind Pressure Humidity
    00:00 +10°C° 0.1 mm 3 mps 770 mmHg 98%
    01:00 +11°C° 0.1 mm 3 mps 770 mmHg 98%
    02:00 +11°C° 0.1 mm 3 mps 770 mmHg 98%
    03:00 +11°C° 0.1 mm 3 mps 770 mmHg 98%
    04:00 +11°C° 0.1 mm 3 mps 770 mmHg 98%
    05:00 +11°C° 0.1 mm 3 mps 770 mmHg 98%
    06:00 +11°C° 0.1 mm 3 mps 770 mmHg 98%
    07:00 +11°C° 0 mm 3 mps 771 mmHg 97%
    08:00 +11°C° 0 mm 3 mps 771 mmHg 97%
    09:00 +11°C° 0 mm 3 mps 771 mmHg 97%
    10:00 +12°C° 0 mm 3 mps 771 mmHg 96%
    11:00 +12°C° 0 mm 4 mps 772 mmHg 94%
    12:00 +13°C° 0 mm 4 mps 772 mmHg 92%
    13:00 +13°C° 0 mm 4 mps 772 mmHg 92%
    14:00 +13°C° 0 mm 5 mps 772 mmHg 92%
    15:00 +13°C° 0 mm 5 mps 771 mmHg 92%
    16:00 +12°C° 0 mm 5 mps 772 mmHg 93%
    17:00 +12°C° 0 mm 5 mps 772 mmHg 94%
    18:00 +11°C° 0 mm 4 mps 772 mmHg 95%
    19:00 +11°C° 0 mm 4 mps 773 mmHg 96%
    20:00 +10°C° 0 mm 5 mps 773 mmHg 96%
    21:00 +10°C° 0 mm 5 mps 773 mmHg 96%
    22:00 +11°C° 0 mm 4 mps 773 mmHg 96%
    23:00 +11°C° 0 mm 4 mps 773 mmHg 97%

    20 December, Wednesday

    Time Temperature Precipitation Wind Pressure Humidity
    00:00 +11°C° 0 mm 4 mps 773 mmHg 97%
    01:00 +11°C° 0 mm 4 mps 773 mmHg 96%
    02:00 +10°C° 0 mm 4 mps 774 mmHg 96%
    03:00 +10°C° 0 mm 4 mps 774 mmHg 96%
    04:00 +9°C° 0 mm 3 mps 774 mmHg 96%
    05:00 +9°C° 0 mm 3 mps 774 mmHg 96%
    06:00 +8°C° 0 mm 3 mps 774 mmHg 97%
    07:00 +8°C° 0 mm 3 mps 774 mmHg 97%
    08:00 +8°C° 0 mm 3 mps 775 mmHg 97%
    09:00 +8°C° 0 mm 3 mps 775 mmHg 97%
    10:00 +9°C° 0 mm 3 mps 775 mmHg 94%
    11:00 +10°C° 0 mm 3 mps 775 mmHg 92%
    12:00 +11°C° 0 mm 4 mps 775 mmHg 89%
    13:00 +11°C° 0 mm 4 mps 775 mmHg 90%
    14:00 +11°C° 0 mm 4 mps 775 mmHg 91%
    15:00 +11°C° 0 mm 4 mps 775 mmHg 92%
    16:00 +10°C° 0 mm 4 mps 775 mmHg 93%
    17:00 +10°C° 0 mm 4 mps 775 mmHg 94%
    18:00 +8°C° 0 mm 4 mps 775 mmHg 96%
    19:00 +8°C° 0 mm 4 mps 775 mmHg 96%
    20:00 +7°C° 0 mm 4 mps 775 mmHg 96%
    21:00 +7°C° 0 mm 4 mps 775 mmHg 96%
    22:00 +7°C° 0 mm 4 mps 775 mmHg 95%
    23:00 +8°C° 0 mm 5 mps 775 mmHg 95%
    Show more